Location: Waning Moon II Observatory
(30.3730°N, 89.7620°W)
Time: 16:20:53
(UTC-05:00)

Cosmos 1825 Rocket - Visible Passes

Search period start: 02 September 2014 00:00
Search period end: 12 September 2014 00:00
Orbit: 605 x 634 km, 82.5° (Epoch: 02 September)

Date Brightness Start Highest point End Pass type
(mag) Time Alt. Az. Time Alt. Az. Time Alt. Az.
04 Sep 7.2 05:51:41 10° ESE 05:53:02 11° E 05:54:23 10° ENE visible
05 Sep 6.4 06:06:49 10° SE 06:10:16 23° E 06:13:41 10° NE visible
08 Sep 6.9 05:23:17 10° ESE 05:25:00 12° E 05:26:43 10° ENE visible
09 Sep 6.1 05:38:43 10° SE 05:42:14 25° E 05:45:46 10° NE visible
10 Sep 4.5 05:55:21 10° SSE 05:59:33 51° E 06:03:45 10° NNE visible
11 Sep 3.5 06:12:38 10° S 06:16:57 74° W 06:21:17 10° N visible
